Great Bend, KS

4:20 AM CST on February 09, 2016 (GMT -0600)
Great Bend Municipal

Weather History for KGBD - March, 2014

Change the Weather History Date:

Sunday, March 30, 2014

  Actual Average Record
Temperature  
Mean Temperature 63 °F -  
Max Temperature 78 °F 61 °F 85 °F (1986)
Min Temperature 48 °F 35 °F 8 °F (1987)
Degree Days  
Heating Degree Days 2    
Growing Degree Days 13 (Base 50)    
Moisture  
Dew Point 31 °F    
Average Humidity 32    
Maximum Humidity 46    
Minimum Humidity 21    
Precipitation  
Precipitation 0.00 in - - ()
Sea Level Pressure  
Sea Level Pressure 29.81 in    
Wind  
Wind Speed 24 mph (South)    
Max Wind Speed 36 mph    
Max Gust Speed 44 mph    
Visibility 10 miles    
Events      
Averages and records for this station are not official NWS values.
T = Trace of Precipitation, MM = Missing Value Source: NWS Daily Summary

Daily Weather History Graph

Daily Weather History Graph

Search for Another Location

Airport or City:

Trip Planner

Search our weather history database for the weather conditions in past years. The results will help you decide how hot, cold, wet, or windy it might be!

Date:

Astronomy

Mar. 30, 2014 Rise Set
Actual Time 7:23 AM CDT 7:56 PM CDT
Civil Twilight 6:56 AM CDT 8:23 PM CDT
Nautical Twilight 6:25 AM CDT 8:54 PM CDT
Astronomical Twilight 5:53 AM CDT 9:27 PM CDT
Moon 7:10 AM CDT (3/30) 8:10 PM CDT (3/30)
Length of Visible Light 13h 26m
Length of Day
12h 33m
Waning Crescent, 0% of the Moon is Illuminated
Mar 30
Waning Crescent
Mar 30
New
Apr 7
First Quarter
Apr 15
Full
Apr 22
Last Quarter

Hourly Weather History & Observations

Time (CDT) Temp. Dew Point Humidity Pressure Visibility Wind Dir Wind Speed Gust Speed Precip Events Conditions
12:15 AM 53.6 °F 24.8 °F 33% 30.05 in 10.0 mi South 21.9 mph 29.9 mph N/A   Clear
12:35 AM 51.8 °F 24.8 °F 35% 30.05 in 10.0 mi South 20.7 mph 29.9 mph N/A   Clear
12:55 AM 51.8 °F 24.8 °F 35% 30.04 in 10.0 mi South 21.9 mph - N/A   Clear
1:15 AM 51.8 °F 24.8 °F 35% 30.04 in 10.0 mi South 20.7 mph 26.5 mph N/A   Clear
1:35 AM 51.8 °F 24.8 °F 35% 30.03 in 10.0 mi South 21.9 mph - N/A   Clear
1:55 AM 50.0 °F 24.8 °F 37% 30.02 in 10.0 mi South 20.7 mph - N/A   Clear
2:15 AM 50.0 °F 24.8 °F 37% 30.02 in 10.0 mi South 20.7 mph 26.5 mph N/A   Clear
2:35 AM 48.2 °F 24.8 °F 40% 30.01 in 10.0 mi South 19.6 mph 26.5 mph N/A   Clear
2:55 AM 48.2 °F 26.6 °F 43% 30.00 in 10.0 mi South 19.6 mph - N/A   Clear
3:15 AM 48.2 °F 26.6 °F 43% 29.99 in 10.0 mi South 19.6 mph 25.3 mph N/A   Clear
3:35 AM 48.2 °F 26.6 °F 43% 29.99 in 10.0 mi South 19.6 mph 24.2 mph N/A   Clear
3:55 AM 48.2 °F 26.6 °F 43% 29.98 in 10.0 mi South 17.3 mph - N/A   Clear
4:15 AM 50.0 °F 26.6 °F 40% 29.97 in 10.0 mi South 18.4 mph 24.2 mph N/A   Clear
4:35 AM 50.0 °F 26.6 °F 40% 29.97 in 10.0 mi South 20.7 mph 27.6 mph N/A   Clear
4:55 AM 48.2 °F 26.6 °F 43% 29.96 in 10.0 mi South 19.6 mph - N/A   Clear
5:15 AM 48.2 °F 28.4 °F 46% 29.94 in 10.0 mi South 24.2 mph 29.9 mph N/A   Clear
5:35 AM 50.0 °F 28.4 °F 43% 29.93 in 10.0 mi South 26.5 mph 32.2 mph N/A   Clear
5:55 AM 50.0 °F 28.4 °F 43% 29.93 in 10.0 mi South 27.6 mph 31.1 mph N/A   Clear
6:15 AM 50.0 °F 28.4 °F 43% 29.92 in 10.0 mi South 27.6 mph 32.2 mph N/A   Clear
6:35 AM 51.8 °F 28.4 °F 41% 29.92 in 10.0 mi South 24.2 mph 32.2 mph N/A   Clear
6:55 AM 50.0 °F 28.4 °F 43% 29.92 in 10.0 mi South 24.2 mph 29.9 mph N/A   Clear
7:15 AM 48.2 °F 28.4 °F 46% 29.91 in 10.0 mi South 24.2 mph 29.9 mph N/A   Clear
7:35 AM 48.2 °F 28.4 °F 46% 29.91 in 10.0 mi South 24.2 mph 29.9 mph N/A   Clear
7:55 AM 48.2 °F 28.4 °F 46% 29.91 in 10.0 mi South 23.0 mph 28.8 mph N/A   Clear
8:15 AM 50.0 °F 28.4 °F 43% 29.91 in 10.0 mi South 26.5 mph 32.2 mph N/A   Clear
8:35 AM 51.8 °F 28.4 °F 41% 29.91 in 10.0 mi South 24.2 mph 31.1 mph N/A   Clear
8:55 AM 51.8 °F 28.4 °F 41% 29.90 in 10.0 mi South 24.2 mph 29.9 mph N/A   Clear
9:15 AM 53.6 °F 30.2 °F 41% 29.89 in 10.0 mi South 29.9 mph 34.5 mph N/A   Clear
9:35 AM 57.2 °F 30.2 °F 36% 29.89 in 10.0 mi South 27.6 mph 35.7 mph N/A   Clear
9:55 AM 59.0 °F 30.2 °F 34% 29.88 in 10.0 mi South 25.3 mph 35.7 mph N/A   Clear
10:15 AM 60.8 °F 30.2 °F 31% 29.87 in 10.0 mi SSW 31.1 mph 40.3 mph N/A   Clear
10:35 AM 60.8 °F 30.2 °F 31% 29.87 in 10.0 mi SSW 27.6 mph 35.7 mph N/A   Clear
10:55 AM 62.6 °F 30.2 °F 30% 29.87 in 10.0 mi SSW 27.6 mph 39.1 mph N/A   Clear
11:15 AM 64.4 °F 30.2 °F 28% 29.86 in 10.0 mi SSW 26.5 mph 34.5 mph N/A   Clear
11:35 AM 64.4 °F 30.2 °F 28% 29.85 in 10.0 mi SSW 29.9 mph 39.1 mph N/A   Clear
11:55 AM 66.2 °F 33.8 °F 30% 29.84 in 10.0 mi SSW 31.1 mph 41.4 mph N/A   Clear
12:15 PM 68.0 °F 33.8 °F 28% 29.84 in 10.0 mi SSW 25.3 mph 38.0 mph N/A   Clear
12:35 PM 68.0 °F 33.8 °F 28% 29.83 in 10.0 mi SSW 28.8 mph 38.0 mph N/A   Clear
12:55 PM 69.8 °F 33.8 °F 27% 29.82 in 10.0 mi SSW 27.6 mph 36.8 mph N/A   Clear
1:15 PM 71.6 °F 35.6 °F 27% 29.80 in 10.0 mi SSW 29.9 mph 38.0 mph N/A   Clear
1:35 PM 73.4 °F 35.6 °F 25% 29.80 in 10.0 mi SSW 26.5 mph 34.5 mph N/A   Clear
1:55 PM 73.4 °F 35.6 °F 25% 29.79 in 10.0 mi SSW 27.6 mph 33.4 mph N/A   Clear
2:15 PM 73.4 °F 35.6 °F 25% 29.77 in 10.0 mi South 26.5 mph 35.7 mph N/A   Clear
2:35 PM 75.2 °F 35.6 °F 24% 29.76 in 10.0 mi SSW 26.5 mph 36.8 mph N/A   Clear
2:55 PM 77.0 °F 35.6 °F 22% 29.74 in 10.0 mi South 27.6 mph 38.0 mph N/A   Clear
3:15 PM 75.2 °F 35.6 °F 24% 29.73 in 10.0 mi South 28.8 mph 36.8 mph N/A   Clear
3:35 PM 78.8 °F 35.6 °F 21% 29.72 in 10.0 mi South 28.8 mph 35.7 mph N/A   Clear
3:55 PM 77.0 °F 35.6 °F 22% 29.71 in 10.0 mi South 26.5 mph 33.4 mph N/A   Clear
4:15 PM 77.0 °F 35.6 °F 22% 29.70 in 10.0 mi South 27.6 mph 34.5 mph N/A   Clear
4:35 PM 77.0 °F 35.6 °F 22% 29.68 in 10.0 mi South 29.9 mph 35.7 mph N/A   Clear
4:55 PM 78.8 °F 35.6 °F 21% 29.67 in 10.0 mi South 23.0 mph 33.4 mph N/A   Clear
5:15 PM 78.8 °F 35.6 °F 21% 29.66 in 10.0 mi South 26.5 mph 34.5 mph N/A   Clear
5:35 PM 75.2 °F 35.6 °F 24% 29.66 in 10.0 mi South 26.5 mph 35.7 mph N/A   Clear
5:55 PM 78.8 °F 35.6 °F 21% 29.64 in 10.0 mi South 28.8 mph 38.0 mph N/A   Clear
6:15 PM 75.2 °F 35.6 °F 24% 29.64 in 10.0 mi South 27.6 mph 33.4 mph N/A   Clear
6:35 PM 75.2 °F 35.6 °F 24% 29.63 in 10.0 mi South 27.6 mph 36.8 mph N/A   Clear
6:55 PM 73.4 °F 35.6 °F 25% 29.64 in 10.0 mi South 21.9 mph 34.5 mph N/A   Clear
7:15 PM 73.4 °F 35.6 °F 25% 29.63 in 10.0 mi South 28.8 mph 35.7 mph N/A   Clear
7:35 PM 71.6 °F 35.6 °F 27% 29.63 in 10.0 mi South 29.9 mph 35.7 mph N/A   Clear
7:55 PM 71.6 °F 35.6 °F 27% 29.63 in 10.0 mi South 26.5 mph 36.8 mph N/A   Clear
8:15 PM 69.8 °F 35.6 °F 28% 29.63 in 10.0 mi SSE 27.6 mph 38.0 mph N/A   Clear
8:35 PM 69.8 °F 35.6 °F 28% 29.62 in 10.0 mi SSE 29.9 mph 35.7 mph N/A   Clear
8:55 PM 69.8 °F 35.6 °F 28% 29.63 in 10.0 mi South 27.6 mph 33.4 mph N/A   Clear
9:15 PM 68.0 °F 33.8 °F 28% 29.62 in 10.0 mi South 28.8 mph 35.7 mph N/A   Clear
9:35 PM 68.0 °F 33.8 °F 28% 29.62 in 10.0 mi South 29.9 mph 39.1 mph N/A   Clear
9:55 PM 68.0 °F 33.8 °F 28% 29.62 in 10.0 mi South 29.9 mph 36.8 mph N/A   Clear
10:15 PM 66.2 °F 33.8 °F 30% 29.62 in 10.0 mi South 28.8 mph 38.0 mph N/A   Clear
10:35 PM 66.2 °F 32.0 °F 28% 29.61 in 10.0 mi South 32.2 mph 41.4 mph N/A   Clear
10:55 PM 66.2 °F 30.2 °F 26% 29.60 in 10.0 mi South 35.7 mph 43.7 mph N/A   Clear
11:15 PM 66.2 °F 30.2 °F 26% 29.60 in 10.0 mi South 32.2 mph 40.3 mph N/A   Clear
11:35 PM 64.4 °F 30.2 °F 28% 29.59 in 10.0 mi South 33.4 mph 41.4 mph N/A   Clear
11:55 PM 64.4 °F 30.2 °F 28% 29.59 in 10.0 mi South 31.1 mph 41.4 mph N/A   Clear